[[{"header":{"parameterUnit":"m.s-1","parameterCategory":1,"la1":30.2991,"la2":30.254,"lo1":-89.0895,"lo2":-89.0444,"dy":0.0017,"dx":0.0017,"nx":28,"ny":28,"refTime":"2025-07-16T03:00:00:Z","depth":0,"parameterNumber":2,"parameterNumberName":"U-component_of_WINDS"},"data":[0,0,0,0,0,0,0,0,0,0,0,0,0,0,0,0,0,0,0,0,0,0,0,0,0,0,0,0,0,0,0,0,0,0,0,0,0,0,0,0,0,0,0,0,0,0,0,0,0,0,0,0,0,0,0,0,0,0,-1.6155,-1.6157,0,-1.6347,-1.6349,-1.6351,-1.642,-1.6419,-1.6419,-1.6418,-1.662,-1.6626,-1.6632,0,0,0,0,0,0,0,0,0,0,0,0,0,-1.5854,-1.5859,-1.6154,-1.6157,-1.6159,-1.6346,-1.6349,-1.6352,-1.642,-1.6419,-1.6418,-1.6418,-1.6618,-1.6625,-1.6633,0,0,0,0,0,0,0,0,0,0,0,0,0,-1.6009,-1.5861,-1.6154,-1.6216,-1.6223,-1.6346,-1.6349,-1.6353,-1.642,-1.6419,-1.6418,-1.6417,-1.6616,-1.6625,-1.6634,-1.6711,0,0,-1.6661,-1.6665,0,0,0,0,0,0,0,0,-1.6,-1.602,-1.6204,-1.6212,-1.622,-1.6358,-1.6318,-1.6473,-1.6421,-1.6346,-1.6418,-1.6417,-1.6534,-1.655,-1.6589,-1.672,-1.6729,-1.6662,-1.6668,-1.6672,-1.6674,0,0,0,0,0,0,0,-1.5989,-1.6012,-1.6231,-1.6207,-1.6217,-1.6236,-1.6257,-1.6347,-1.6444,-1.6352,-1.6357,-1.6379,-1.6539,-1.658,-1.6594,-1.6732,-1.6662,-1.667,-1.6676,-1.6679,-1.6942,-1.6944,0,0,0,0,0,0,-1.5967,-1.6003,-1.6225,-1.6236,-1.6105,-1.6243,-1.6266,-1.6315,-1.6443,-1.6461,-1.638,-1.6381,-1.6565,-1.6583,-1.6601,-1.6703,-1.6672,-1.668,-1.6685,-1.6941,-1.6942,-1.6944,0,0,0,0,0,0,-1.5961,-1.5986,-1.6217,-1.6121,-1.6152,-1.6249,-1.6303,-1.6319,-1.6361,-1.6464,-1.6482,-1.6403,-1.6565,-1.6589,-1.6684,-1.6711,-1.6684,-1.6692,-1.6939,-1.6941,-1.6943,-1.6904,0,0,0,0,0,0,-1.5952,-1.5984,-1.6012,-1.6121,-1.6157,-1.6293,-1.6305,-1.6324,-1.6375,-1.638,-1.6491,-1.6508,-1.6566,-1.667,-1.6693,-1.6723,-1.67,-1.6937,-1.694,-1.6942,-1.6904,-1.6905,-1.6906,0,0,0,0,0,-1.5941,-1.5993,-1.6013,-1.6039,-1.6194,-1.6295,-1.6315,-1.6378,-1.6377,-1.6408,-1.6475,-1.6505,-1.6704,-1.6679,-1.6705,-1.6738,-1.6935,-1.6939,-1.6942,-1.6903,-1.6905,-1.6906,0,0,0,0,0,0,-1.5885,-1.6009,-1.6032,-1.6121,-1.6197,-1.6306,-1.6346,-1.6378,-1.6457,-1.6457,-1.6535,-1.6559,-1.6649,-1.6704,-1.6674,-1.6823,-1.6822,-1.6831,-1.6783,-1.6786,-1.6787,-1.6772,-1.6707,0,0,0,0,0,-1.5883,-1.5953,-1.6058,-1.6127,-1.6164,-1.6248,-1.6295,-1.6337,-1.6419,-1.6452,-1.6526,-1.6607,-1.6688,-1.674,-1.682,-1.6912,-1.694,-1.6949,-1.695,-1.695,-1.6957,-1.7014,-1.702,-1.6955,-1.6955,-1.6955,0,0,-1.588,-1.5956,-1.5995,-1.6118,-1.6181,-1.6254,-1.6275,-1.635,-1.6406,-1.6464,-1.6559,-1.6616,-1.6712,-1.6807,-1.6852,-1.6855,-1.6982,-1.6955,-1.6954,-1.6961,-1.7018,-1.7024,-1.703,-1.6958,-1.6957,-1.6957,0,0,-1.5912,-1.5975,-1.6041,-1.6105,-1.6201,-1.6258,-1.6273,-1.6379,-1.6419,-1.6515,-1.6561,-1.6631,-1.6768,-1.6835,-1.6887,-1.6949,-1.6981,-1.6973,-1.698,-1.7034,-1.7039,-1.7044,-1.7069,-1.7077,-1.698,-1.698,-1.6979,0,-1.5896,-1.6006,-1.6071,-1.6145,-1.6199,-1.6254,-1.6324,-1.6383,-1.6501,-1.6539,-1.6539,-1.6716,-1.6784,-1.6897,-1.6912,-1.6952,-1.6975,-1.696,-1.7033,-1.7039,-1.7044,-1.7069,-1.7077,-1.6978,-1.6978,-1.6978,-1.6979,0,-1.5983,-1.6059,-1.6101,-1.6213,-1.6272,-1.6342,-1.6422,-1.6474,-1.6512,-1.657,-1.667,-1.6754,-1.6854,-1.6884,-1.6922,-1.7004,-1.7003,-1.7017,-1.7019,-1.7048,-1.7072,-1.7082,-1.6976,-1.6977,-1.6977,-1.6977,0,0,-1.5983,-1.6132,-1.6147,-1.62,-1.6312,-1.6373,-1.6449,-1.6545,-1.659,-1.6671,-1.6738,-1.6855,-1.687,-1.693,-1.6977,-1.7024,-1.7071,-1.7034,-1.7037,-1.704,-1.7171,-1.716,-1.7169,-1.7093,-1.7095,-1.7097,-1.7164,0,-1.6031,-1.6165,-1.6228,-1.6336,-1.6409,-1.6465,-1.6532,-1.661,-1.6667,-1.6739,-1.6804,-1.6886,-1.6898,-1.6935,-1.6985,-1.7055,-1.7099,-1.7051,-1.716,-1.7163,-1.7135,-1.7182,-1.717,-1.7228,-1.7173,-1.7175,-1.7176,0,-1.6103,-1.6183,-1.6298,-1.6405,-1.6438,-1.6496,-1.6592,-1.6659,-1.6751,-1.6789,-1.6857,-1.6903,-1.6989,-1.6984,-1.7105,-1.7071,-1.712,-1.7162,-1.7166,-1.7179,-1.7171,-1.7198,-1.7248,-1.7257,-1.7192,-1.719,-1.7189,0,-1.6094,-1.6231,-1.6318,-1.6362,-1.6488,-1.6528,-1.6583,-1.6673,-1.6728,-1.6813,-1.6851,-1.6944,-1.6996,-1.707,-1.7142,-1.7131,-1.7257,-1.7258,-1.7295,-1.7293,-1.7318,-1.7316,-1.7379,-1.7348,-1.7348,-1.7347,-1.7347,0,-1.614,-1.6209,-1.6316,-1.637,-1.645,-1.6524,-1.6602,-1.6662,-1.6742,-1.6811,-1.6866,-1.6931,-1.7021,-1.7098,-1.7155,-1.7249,-1.7271,-1.7307,-1.7322,-1.7303,-1.7298,-1.7336,-1.7335,-1.735,-1.7349,-1.7349,-1.7349,0,-1.6143,-1.6217,-1.6316,-1.6428,-1.6458,-1.6513,-1.661,-1.6667,-1.6727,-1.6814,-1.6839,-1.6936,-1.7029,-1.7108,-1.7232,-1.7271,-1.7369,-1.7385,-1.7337,-1.7345,-1.7378,-1.7374,-1.7468,-1.7486,-1.7441,-1.7441,-1.7442,0,-1.6168,-1.6222,-1.634,-1.639,-1.6443,-1.6522,-1.6579,-1.6656,-1.6714,-1.6824,-1.6868,-1.6966,-1.7047,-1.7196,-1.7279,-1.7375,-1.7395,-1.7422,-1.741,-1.739,-1.7398,-1.7394,-1.7402,-1.7422,-1.7422,-1.7422,-1.7422,0,-1.6205,-1.624,-1.6318,-1.6411,-1.6478,-1.6555,-1.6634,-1.6672,-1.6764,-1.6827,-1.6923,-1.6986,-1.7114,-1.7211,-1.7317,-1.7377,-1.7417,-1.7426,-1.744,-1.7421,-1.7392,-1.741,-1.7341,-1.7423,-1.7423,-1.7423,-1.7423,-1.7423,-1.6221,-1.6273,-1.6365,-1.6452,-1.652,-1.6593,-1.6653,-1.6722,-1.6802,-1.691,-1.6952,-1.7051,-1.7146,-1.7292,-1.7353,-1.7434,-1.7439,-1.7459,-1.7464,-1.7468,-1.7466,-1.7378,-1.7453,-1.7454,-1.7454,-1.7454,-1.7454,0,-1.6263,-1.6325,-1.6405,-1.6514,-1.6583,-1.6613,-1.6703,-1.676,-1.6846,-1.693,-1.7011,-1.7123,-1.722,-1.7311,-1.7413,-1.7461,-1.7482,-1.7485,-1.7483,-1.7497,-1.7455,-1.7433,-1.7467,-1.7467,-1.7467,-1.7466,-1.7466,-1.7466,-1.6292,-1.6383,-1.6429,-1.6556,-1.662,-1.6715,-1.6765,-1.6835,-1.6903,-1.7025,-1.7105,-1.7164,-1.7253,-1.7362,-1.7453,-1.7478,-1.7514,-1.7513,-1.7543,-1.7502,-1.7499,-1.7497,-1.7477,-1.752,-1.752,-1.7579,-1.7579,-1.758]},{"header":{"parameterUnit":"m.s-1","parameterCategory":1,"la1":30.2991,"la2":30.254,"lo1":-89.0895,"lo2":-89.0444,"dy":0.0017,"dx":0.0017,"nx":28,"ny":28,"refTime":"2025-07-16T03:00:00:Z","depth":0,"parameterNumber":3,"parameterNumberName":"V-component_of_WINDS"},"data":[0,0,0,0,0,0,0,0,0,0,0,0,0,0,0,0,0,0,0,0,0,0,0,0,0,0,0,0,0,0,0,0,0,0,0,0,0,0,0,0,0,0,0,0,0,0,0,0,0,0,0,0,0,0,0,0,0,0,-2.031,-2.0307,0,-2.0036,-2.0032,-2.0029,-1.992,-1.9921,-1.9921,-1.9922,-1.9621,-1.9612,-1.9604,0,0,0,0,0,0,0,0,0,0,0,0,0,-2.0721,-2.0715,-2.031,-2.0307,-2.0304,-2.0036,-2.0032,-2.0029,-1.992,-1.9921,-1.9922,-1.9923,-1.9624,-1.9613,-1.9603,0,0,0,0,0,0,0,0,0,0,0,0,0,-2.0504,-2.0712,-2.0311,-2.0218,-2.0207,-2.0037,-2.0032,-2.0027,-1.992,-1.9921,-1.9922,-1.9923,-1.9627,-1.9614,-1.9601,-1.9498,0,0,-1.9561,-1.9556,0,0,0,0,0,0,0,0,-2.0517,-2.0489,-2.0235,-2.0224,-2.0211,-2.0014,-2.0067,-1.9849,-1.9919,-2.0028,-1.9922,-1.9924,-1.9749,-1.9726,-1.9672,-1.9484,-1.9471,-1.956,-1.9552,-1.9547,-1.9543,0,0,0,0,0,0,0,-2.0532,-2.05,-2.0201,-2.0231,-2.0216,-2.0183,-2.0153,-2.0025,-1.9885,-2.0019,-2.001,-1.998,-1.9743,-1.9684,-1.9664,-1.9467,-1.9561,-1.9549,-1.9541,-1.9536,-1.9179,-1.9178,0,0,0,0,0,0,-2.0565,-2.0514,-2.021,-2.0193,-2.037,-2.0175,-2.0142,-2.0075,-1.9886,-1.9859,-1.9979,-1.9976,-1.9706,-1.9679,-1.9653,-1.952,-1.9547,-1.9535,-1.9527,-1.9181,-1.9179,-1.9177,0,0,0,0,0,0,-2.0574,-2.0539,-2.0221,-2.0351,-2.0308,-2.0167,-2.0093,-2.0069,-2.0011,-1.9857,-1.9829,-1.9947,-1.9706,-1.9671,-1.9539,-1.9508,-1.9529,-1.9517,-1.9183,-1.918,-1.9178,-1.9254,0,0,0,0,0,0,-2.0587,-2.0543,-2.0507,-2.0351,-2.0302,-2.0118,-2.0091,-2.0063,-1.9992,-1.9984,-1.9819,-1.9793,-1.9704,-1.9559,-1.9526,-1.949,-1.9507,-1.9185,-1.9182,-1.9179,-1.9253,-1.9254,-1.9255,0,0,0,0,0,-2.0602,-2.0535,-2.0506,-2.047,-2.0255,-2.0116,-2.0087,-1.9993,-1.999,-1.9949,-1.985,-1.9798,-1.9517,-1.9546,-1.9508,-1.9468,-1.9186,-1.9183,-1.9179,-1.9253,-1.9254,-1.9255,0,0,0,0,0,0,-2.0683,-2.0513,-2.0479,-2.0361,-2.0255,-2.0099,-2.0045,-1.9997,-1.9884,-1.9882,-1.9763,-1.9726,-1.9603,-1.9521,-1.9558,-1.9357,-1.9347,-1.9336,-1.9416,-1.9416,-1.9417,-1.9439,-1.9496,0,0,0,0,0,-2.0689,-2.0598,-2.045,-2.036,-2.0309,-2.0187,-2.0123,-2.006,-1.9942,-1.9895,-1.9786,-1.9668,-1.9553,-1.9479,-1.9365,-1.924,-1.9201,-1.9193,-1.9194,-1.9196,-1.9187,-1.9114,-1.9108,-1.9165,-1.9165,-1.9165,0,0,-2.0697,-2.0592,-2.054,-2.0374,-2.0284,-2.0187,-2.0149,-2.0047,-1.9972,-1.9877,-1.9748,-1.9664,-1.9524,-1.9396,-1.9333,-1.9323,-1.9163,-1.9191,-1.9194,-1.9183,-1.9109,-1.9104,-1.91,-1.9163,-1.9163,-1.9163,0,0,-2.0662,-2.0575,-2.0491,-2.0404,-2.0272,-2.0191,-2.0171,-2.0022,-1.9964,-1.9834,-1.9761,-1.9666,-1.9471,-1.9375,-1.93,-1.9231,-1.9178,-1.9196,-1.92,-1.913,-1.9125,-1.9121,-1.9095,-1.9088,-1.9188,-1.9188,-1.9188,0,-2.0687,-2.0545,-2.0452,-2.0356,-2.0283,-2.02,-2.0111,-2.0028,-1.9862,-1.9811,-1.9804,-1.9559,-1.9458,-1.9306,-1.929,-1.9232,-1.9202,-1.9214,-1.9135,-1.9129,-1.9123,-1.9097,-1.9088,-1.9191,-1.919,-1.919,-1.919,0,-2.0581,-2.0483,-2.0429,-2.028,-2.0201,-2.0108,-1.9997,-1.9926,-1.987,-1.9788,-1.9655,-1.9532,-1.9392,-1.9351,-1.9291,-1.9189,-1.9188,-1.9159,-1.9146,-1.9123,-1.9097,-1.9086,-1.9195,-1.9194,-1.9193,-1.9193,0,0,-2.059,-2.0394,-2.0376,-2.0307,-2.0155,-2.0074,-1.9975,-1.9845,-1.9787,-1.9674,-1.9586,-1.9424,-1.9398,-1.9313,-1.9242,-1.9181,-1.9133,-1.9159,-1.9153,-1.9158,-1.9011,-1.9034,-1.9025,-1.9097,-1.9095,-1.9093,-1.9023,0,-2.0536,-2.0365,-2.0279,-2.0142,-2.0049,-1.9968,-1.9881,-1.9776,-1.9696,-1.96,-1.9508,-1.9396,-1.9369,-1.9318,-1.9254,-1.9153,-1.9101,-1.9156,-1.9009,-1.9005,-1.9048,-1.9011,-1.9034,-1.8975,-1.9012,-1.901,-1.9009,0,-2.0449,-2.0347,-2.0204,-2.0064,-2.0021,-1.9946,-1.982,-1.9731,-1.9607,-1.9553,-1.9461,-1.9392,-1.9279,-1.9275,-1.9115,-1.9155,-1.9088,-1.9029,-1.9024,-1.9007,-1.9006,-1.8992,-1.8953,-1.8945,-1.8991,-1.8993,-1.8994,0,-2.0472,-2.0295,-2.0187,-2.0131,-1.9965,-1.9914,-1.9841,-1.972,-1.9647,-1.9534,-1.9485,-1.9357,-1.9287,-1.9187,-1.9083,-1.909,-1.8933,-1.8921,-1.8881,-1.8884,-1.8852,-1.8855,-1.8802,-1.881,-1.881,-1.881,-1.881,0,-2.042,-2.0335,-2.0196,-2.0129,-2.003,-1.993,-1.9832,-1.9752,-1.9644,-1.9556,-1.9475,-1.9392,-1.9261,-1.916,-1.9077,-1.8957,-1.8925,-1.8874,-1.8853,-1.8882,-1.8889,-1.8837,-1.8838,-1.8807,-1.8808,-1.8808,-1.8809,0,-2.0428,-2.0332,-2.0208,-2.0064,-2.0025,-1.9959,-1.9831,-1.976,-1.9678,-1.9567,-1.9534,-1.9402,-1.9279,-1.9167,-1.9,-1.8944,-1.8822,-1.8795,-1.8867,-1.8856,-1.8823,-1.8828,-1.8735,-1.8717,-1.8737,-1.8737,-1.8737,0,-2.0402,-2.0336,-2.0186,-2.0126,-2.0057,-1.9958,-1.9886,-1.9782,-1.9709,-1.9564,-1.9509,-1.9382,-1.9276,-1.9082,-1.8966,-1.8838,-1.8807,-1.8783,-1.8787,-1.8818,-1.8806,-1.8812,-1.8804,-1.8785,-1.8785,-1.8785,-1.8785,0,-2.0366,-2.0323,-2.0225,-2.0111,-2.0029,-1.9932,-1.9831,-1.9784,-1.966,-1.958,-1.9459,-1.9376,-1.9211,-1.9084,-1.8944,-1.886,-1.88,-1.8786,-1.877,-1.8798,-1.8843,-1.8819,-1.8871,-1.8788,-1.8788,-1.8787,-1.8787,-1.8787,-2.0355,-2.0294,-2.0181,-2.0074,-1.9989,-1.9898,-1.9826,-1.9736,-1.9635,-1.9498,-1.944,-1.9316,-1.919,-1.8997,-1.8915,-1.8811,-1.8798,-1.8775,-1.8769,-1.8765,-1.8771,-1.8861,-1.8784,-1.8784,-1.8784,-1.8784,-1.8783,0,-2.0316,-2.024,-2.0144,-2.001,-1.9926,-1.9885,-1.9771,-1.9701,-1.9596,-1.9488,-1.9386,-1.9244,-1.9121,-1.8998,-1.8866,-1.8807,-1.8776,-1.8775,-1.8778,-1.876,-1.879,-1.8817,-1.8803,-1.8803,-1.8803,-1.8803,-1.8803,-1.8803,-2.0286,-2.018,-2.0123,-1.9972,-1.9893,-1.9777,-1.9716,-1.9629,-1.9543,-1.9392,-1.9293,-1.9215,-1.9099,-1.8959,-1.8842,-1.8808,-1.8762,-1.877,-1.8728,-1.8758,-1.8758,-1.8757,-1.8783,-1.8761,-1.8761,-1.8707,-1.8706,-1.8706]}]]